Weather History for Provincetown, MA

Change the Weather History Date:

Sunday, March 10, 2013

  Actual Average Record
Temperature  
Mean Temperature 36 °F -  
Max Temperature 39 °F 39 °F 58 °F (1955)
Min Temperature 33 °F 28 °F 19 °F (2004)
Degree Days  
Heating Degree Days 29    
Moisture  
Dew Point 30 °F    
Average Humidity 76    
Maximum Humidity 87    
Minimum Humidity 70    
Precipitation  
Precipitation 0.00 in - - ()
Sea Level Pressure  
Sea Level Pressure 30.37 in    
Wind  
Wind Speed 11 mph (ENE)    
Max Wind Speed 17 mph    
Max Gust Speed 22 mph    
Visibility 10 miles    
Events      
Averages and records for this station are not official NWS values.
T = Trace of Precipitation, MM = Missing Value Source: NWS Daily Summary

Daily Weather History Graph

Daily Weather History Graph

Search for Another Location

Airport:

Trip Planner

Search our weather history database for the weather conditions in past years. The results will help you decide how hot, cold, wet, or windy it might be!

Date:

Astronomy

Mar. 10, 2013 Rise Set
Actual Time 7:00 AM EDT 6:41 PM EDT
Civil Twilight 6:33 AM EDT 7:09 PM EDT
Nautical Twilight 6:00 AM EDT 7:42 PM EDT
Astronomical Twilight 5:28 AM EDT 8:14 PM EDT
Moon 5:59 AM EDT (3/10) 5:46 PM EDT (3/10)
Length of Visible Light 12h 36m
Length of Day
11h 41m
Waning Crescent, 2% of the Moon is Illuminated
Mar 10
Waning Crescent
Mar 11
New
Mar 19
First Quarter
Mar 27
Full
Apr 3
Last Quarter

Hourly Weather History & Observations

Time (EDT) Temp. Windchill Dew Point Humidity Pressure Visibility Wind Dir Wind Speed Gust Speed Precip Events Conditions
12:15 AM 37.4 °F 29.8 °F 32.0 °F 81% 30.34 in 10.0 mi NE 11.5 mph - N/A   Mostly Cloudy
12:35 AM 37.4 °F 28.5 °F 32.0 °F 81% 30.34 in 10.0 mi NE 15.0 mph - N/A   Overcast
12:55 AM 37.4 °F 28.5 °F 30.2 °F 75% 30.34 in 10.0 mi NE 15.0 mph - N/A   Overcast
1:15 AM 37.4 °F 28.2 °F 32.0 °F 81% 30.34 in 10.0 mi NE 16.1 mph - N/A   Overcast
1:35 AM 37.4 °F 28.2 °F 30.2 °F 75% 30.35 in 10.0 mi NE 16.1 mph - N/A   Mostly Cloudy
1:55 AM 37.4 °F 28.5 °F 30.2 °F 75% 30.34 in 10.0 mi NE 15.0 mph 20.7 mph N/A   Mostly Cloudy
3:15 AM 37.4 °F 28.5 °F 30.2 °F 75% 30.34 in 10.0 mi NNE 15.0 mph - N/A   Overcast
3:35 AM 37.4 °F 28.5 °F 30.2 °F 75% 30.34 in 10.0 mi NE 15.0 mph 20.7 mph N/A   Overcast
3:55 AM 37.4 °F 27.8 °F 30.2 °F 75% 30.34 in 10.0 mi NNE 17.3 mph - N/A   Mostly Cloudy
4:15 AM 37.4 °F 28.5 °F 30.2 °F 75% 30.34 in 10.0 mi NNE 15.0 mph 21.9 mph N/A   Overcast
4:35 AM 37.4 °F 28.2 °F 30.2 °F 75% 30.35 in 10.0 mi NE 16.1 mph - N/A   Overcast
4:55 AM 37.4 °F 28.9 °F 32.0 °F 81% 30.35 in 10.0 mi NE 13.8 mph 18.4 mph N/A   Overcast
5:15 AM 37.4 °F 28.5 °F 30.2 °F 75% 30.36 in 10.0 mi NE 15.0 mph 21.9 mph N/A   Overcast
5:35 AM 37.4 °F 28.5 °F 28.4 °F 70% 30.36 in 10.0 mi NNE 15.0 mph 20.7 mph N/A   Overcast
5:55 AM 37.4 °F 30.3 °F 28.4 °F 70% 30.36 in 10.0 mi NE 10.4 mph 20.7 mph N/A   Overcast
6:15 AM 37.4 °F 28.9 °F 30.2 °F 75% 30.37 in 10.0 mi NE 13.8 mph 21.9 mph N/A   Overcast
6:35 AM 35.6 °F 26.6 °F 28.4 °F 75% 30.37 in 10.0 mi NE 13.8 mph 19.6 mph N/A   Overcast
6:55 AM 37.4 °F 29.8 °F 28.4 °F 70% 30.37 in 10.0 mi ENE 11.5 mph 17.3 mph N/A   Overcast
7:15 AM 35.6 °F 26.6 °F 30.2 °F 81% 30.37 in 10.0 mi ENE 13.8 mph - N/A   Overcast
8:35 AM 37.4 °F 30.3 °F 32.0 °F 81% 30.39 in 10.0 mi NE 10.4 mph - N/A   Overcast
8:55 AM 37.4 °F 29.8 °F 30.2 °F 75% 30.39 in 10.0 mi NE 11.5 mph - N/A   Overcast
9:15 AM 37.4 °F 30.3 °F 30.2 °F 75% 30.39 in 10.0 mi ENE 10.4 mph - N/A   Overcast
9:35 AM 37.4 °F 29.3 °F 30.2 °F 75% 30.40 in 10.0 mi ENE 12.7 mph - N/A   Overcast
9:55 AM 37.4 °F 30.3 °F 30.2 °F 75% 30.40 in 10.0 mi NE 10.4 mph - N/A   Overcast
10:15 AM 37.4 °F 29.8 °F 30.2 °F 75% 30.40 in 10.0 mi ENE 11.5 mph - N/A   Overcast
10:35 AM 37.4 °F 30.8 °F 30.2 °F 75% 30.40 in 10.0 mi NE 9.2 mph - N/A   Overcast
10:55 AM 39.2 °F 32.5 °F 30.2 °F 70% 30.40 in 10.0 mi NE 10.4 mph - N/A   Overcast
11:15 AM 37.4 °F 31.4 °F 30.2 °F 75% 30.41 in 10.0 mi NNE 8.1 mph - N/A   Overcast
11:35 AM 37.4 °F 31.4 °F 30.2 °F 75% 30.41 in 10.0 mi NNE 8.1 mph - N/A   Overcast
11:55 AM 39.2 °F 34.2 °F 30.2 °F 70% 30.41 in 10.0 mi NNE 6.9 mph - N/A   Overcast
12:15 PM 39.2 °F 35.0 °F 30.2 °F 70% 30.41 in 10.0 mi NNE 5.8 mph - N/A   Overcast
12:35 PM 39.2 °F 35.0 °F 30.2 °F 70% 30.41 in 10.0 mi NE 5.8 mph - N/A   Overcast
12:55 PM 39.2 °F 34.2 °F 30.2 °F 70% 30.40 in 10.0 mi ENE 6.9 mph - N/A   Overcast
1:15 PM 39.2 °F 33.0 °F 30.2 °F 70% 30.39 in 10.0 mi East 9.2 mph - N/A   Overcast
1:35 PM 39.2 °F 34.2 °F 32.0 °F 75% 30.39 in 10.0 mi ENE 6.9 mph - N/A   Overcast
1:55 PM 39.2 °F 34.2 °F 30.2 °F 70% 30.39 in 10.0 mi ENE 6.9 mph - N/A   Overcast
2:15 PM 39.2 °F 33.6 °F 30.2 °F 70% 30.38 in 10.0 mi ENE 8.1 mph - N/A   Overcast
2:35 PM 39.2 °F 33.0 °F 30.2 °F 70% 30.38 in 10.0 mi ENE 9.2 mph - N/A   Overcast
2:55 PM 39.2 °F 35.0 °F 32.0 °F 75% 30.37 in 10.0 mi ENE 5.8 mph - N/A   Overcast
3:15 PM 39.2 °F 33.6 °F 30.2 °F 70% 30.38 in 10.0 mi NE 8.1 mph - N/A   Overcast
3:35 PM 39.2 °F 33.6 °F 30.2 °F 70% 30.37 in 10.0 mi NE 8.1 mph - N/A   Overcast
3:55 PM 39.2 °F 34.2 °F 30.2 °F 70% 30.37 in 10.0 mi ENE 6.9 mph - N/A   Overcast
4:15 PM 39.2 °F 33.6 °F 30.2 °F 70% 30.37 in 10.0 mi NE 8.1 mph - N/A   Overcast
4:35 PM 39.2 °F 33.0 °F 30.2 °F 70% 30.37 in 10.0 mi East 9.2 mph - N/A   Overcast
4:55 PM 39.2 °F - 30.2 °F 70% 30.37 in 10.0 mi Calm Calm - N/A   Overcast
5:15 PM 39.2 °F 35.0 °F 30.2 °F 70% 30.37 in 10.0 mi ENE 5.8 mph - N/A   Overcast
5:35 PM 37.4 °F 31.4 °F 30.2 °F 75% 30.37 in 10.0 mi ENE 8.1 mph - N/A   Overcast
5:55 PM 37.4 °F 34.9 °F 30.2 °F 75% 30.37 in 10.0 mi NNE 3.5 mph - N/A   Overcast
6:15 PM 37.4 °F 32.8 °F 30.2 °F 75% 30.37 in 10.0 mi ENE 5.8 mph - N/A   Overcast
6:35 PM 37.4 °F 33.8 °F 30.2 °F 75% 30.37 in 10.0 mi ESE 4.6 mph - N/A   Overcast
6:55 PM 37.4 °F 34.9 °F 30.2 °F 75% 30.37 in 10.0 mi ESE 3.5 mph - N/A   Overcast
7:15 PM 37.4 °F 34.9 °F 30.2 °F 75% 30.38 in 10.0 mi East 3.5 mph - N/A   Overcast
7:35 PM 37.4 °F 33.8 °F 28.4 °F 70% 30.37 in 10.0 mi SE 4.6 mph - N/A   Overcast
8:15 PM 35.6 °F 31.7 °F 28.4 °F 75% 30.38 in 10.0 mi ESE 4.6 mph - N/A   Overcast
8:35 PM 33.8 °F 30.8 °F 30.2 °F 87% 30.38 in 10.0 mi ESE 3.5 mph - N/A   Overcast
8:55 PM 33.8 °F 30.8 °F 28.4 °F 81% 30.38 in 10.0 mi SE 3.5 mph - N/A   Partly Cloudy
9:15 PM 33.8 °F 30.8 °F 30.2 °F 87% 30.37 in 10.0 mi SSE 3.5 mph - N/A   Clear
9:35 PM 35.6 °F - 30.2 °F 81% 30.37 in 10.0 mi Calm Calm - N/A   Clear
9:55 PM 35.6 °F 32.8 °F 30.2 °F 81% 30.37 in 10.0 mi SSE 3.5 mph - N/A   Clear
10:15 PM 35.6 °F 32.8 °F 30.2 °F 81% 30.36 in 10.0 mi South 3.5 mph - N/A   Clear
10:35 PM 35.6 °F 32.8 °F 30.2 °F 81% 30.36 in 10.0 mi South 3.5 mph - N/A   Clear
10:55 PM 35.6 °F - 30.2 °F 81% 30.36 in 10.0 mi Calm Calm - N/A   Scattered Clouds
11:15 PM 35.6 °F 30.7 °F 32.0 °F 87% 30.35 in 10.0 mi South 5.8 mph - N/A   Partly Cloudy
11:35 PM 35.6 °F 29.2 °F 30.2 °F 81% 30.35 in 10.0 mi South 8.1 mph - N/A   Partly Cloudy
11:55 PM 35.6 °F 28.6 °F 30.2 °F 81% 30.34 in 10.0 mi South 9.2 mph - N/A   Partly Cloudy
12:15 AM 35.6 °F 28.6 °F 32.0 °F 87% 30.34 in 10.0 mi South 9.2 mph - N/A   Scattered Clouds
12:35 AM 35.6 °F 29.2 °F 30.2 °F 81% 30.33 in 10.0 mi South 8.1 mph - N/A   Scattered Clouds